Weather History for Trinidad, CO

Change the Weather History Date:

Tuesday, January 1, 2013

  Actual Average Record
Temperature  
Mean Temperature 17 °F 32 °F  
Max Temperature 30 °F 46 °F 78 °F (1997)
Min Temperature 3 °F 17 °F -14 °F (1979)
Degree Days  
Heating Degree Days 48 33  
Month to date heating degree days 48 33  
Since 1 July heating degree days 2097 2301  
Cooling Degree Days 0 0  
Month to date cooling degree days 0 0  
Year to date cooling degree days 0 0  
Moisture  
Dew Point 10 °F    
Average Humidity 73    
Maximum Humidity 92    
Minimum Humidity 53    
Precipitation  
Precipitation 0.00 in 0.01 in 0.20 in (1974)
Month to date precipitation 0.00 0.01  
Year to date precipitation 0.01  
Sea Level Pressure  
Sea Level Pressure 30.22 in    
Wind  
Wind Speed 5 mph (WNW)    
Max Wind Speed 14 mph    
Max Gust Speed 16 mph    
Visibility 10 miles    
Events      
T = Trace of Precipitation, MM = Missing Value Source: NWS Daily Summary

Daily Weather History Graph

Daily Weather History Graph

Search for Another Location

Airport:

Trip Planner

Search our weather history database for the weather conditions in past years. The results will help you decide how hot, cold, wet, or windy it might be!

Date:

Astronomy

Jan. 01, 2013 Rise Set
Actual Time 7:11 AM MST 4:50 PM MST
Civil Twilight 6:42 AM MST 5:19 PM MST
Nautical Twilight 6:09 AM MST 5:52 PM MST
Astronomical Twilight 5:38 AM MST 6:24 PM MST
Moon 9:17 PM MST 9:30 AM MST
Length of Visible Light 10h 37m
Length of Day
9h 39m
Waning Gibbous, 83% of the Moon is Illuminated
Jan 1
Waning Gibbous
Jan 4
Last Quarter
Jan 11
New
Jan 18
First Quarter
Jan 26
Full

Hourly Weather History & Observations

Time (MST) Temp. Windchill Dew Point Humidity Pressure Visibility Wind Dir Wind Speed Gust Speed Precip Events Conditions
12:54 AM 12.9 °F - 10.9 °F 92% 30.14 in 10.0 mi Calm Calm - N/A   Partly Cloudy
1:54 AM 10.0 °F 0.4 °F 7.0 °F 87% 30.15 in 10.0 mi West 5.8 mph - N/A   Mostly Cloudy
2:54 AM 9.0 °F 0.6 °F 6.1 °F 88% 30.16 in 10.0 mi West 4.6 mph - N/A   Partly Cloudy
3:54 AM 7.0 °F -1.7 °F 3.9 °F 87% 30.18 in 10.0 mi NW 4.6 mph - N/A   Clear
4:54 AM 6.1 °F -5.6 °F 1.9 °F 83% 30.20 in 10.0 mi WNW 6.9 mph - N/A   Clear
6:54 AM 8.1 °F -4.3 °F 3.0 °F 80% 30.23 in 10.0 mi West 8.1 mph - N/A   Clear
8:54 AM 14.0 °F 8.2 °F 10.0 °F 84% 30.27 in 10.0 mi WNW 3.5 mph - N/A   Clear
10:54 AM 25.0 °F 20.7 °F 14.0 °F 63% 30.21 in 10.0 mi Variable 3.5 mph - N/A   Clear
11:54 AM 27.0 °F 23.0 °F 12.9 °F 56% 30.18 in 10.0 mi Variable 3.5 mph - N/A   Clear
12:54 PM 28.0 °F 22.8 °F 15.1 °F 58% 30.18 in 10.0 mi NNW 4.6 mph - N/A   Clear
2:54 PM 30.0 °F 24.1 °F 15.1 °F 54% 30.17 in 10.0 mi NNE 5.8 mph - N/A   Clear
4:54 PM 24.1 °F 19.7 °F 15.1 °F 69% 30.24 in 10.0 mi ENE 3.5 mph - N/A   Partly Cloudy
5:54 PM 21.0 °F - 14.0 °F 74% 30.26 in 10.0 mi Calm Calm - N/A   Clear
6:54 PM 19.9 °F - 14.0 °F 78% 30.26 in 10.0 mi Calm Calm - N/A   Clear
7:54 PM 15.1 °F 6.4 °F 10.0 °F 80% 30.29 in 10.0 mi WNW 5.8 mph - N/A   Clear
8:54 PM 14.0 °F 1.2 °F 10.0 °F 84% 30.27 in 10.0 mi WSW 10.4 mph - N/A   Clear
9:54 PM 15.1 °F 5.2 °F 10.0 °F 80% 30.24 in 10.0 mi SW 6.9 mph - N/A   Clear
10:54 PM 14.0 °F -0.2 °F 8.1 °F 77% 30.23 in 10.0 mi WNW 12.7 mph - N/A   Clear
11:54 PM 12.0 °F -1.3 °F 6.1 °F 77% 30.24 in 10.0 mi West 10.4 mph - N/A   Clear